[Date Prev][Date Next][Thread Prev][Thread Next] - [Date Index][Thread Index][Author Index]
2 Line ISS Keps 7-14
- Subject: [sarex] 2 Line ISS Keps 7-14
- From: "Dave Larsen PhD" <doc@xxxxxxxxxxx>
- Date: Wed, 13 Jul 2005 21:17:11 -0700
ISS
1 25544U 98067A 05195.14766204 .00022576 00000-0 17549-3 0 9036
2 25544 051.6441 122.7949 0003578 118.0067 086.6827 15.71672809379926
----
Via the sarex mailing list at AMSAT.ORG courtesy of AMSAT-NA.
To unsubscribe, send "unsubscribe sarex" to Majordomo@amsat.org
AMSAT Home